CW2026 Weather Reports


time (UTC)temp
F
wind
direction
speed
knots
gust
knots
rain 1hr
in
rain 24hr
in
rain mn
in
humidity
%
barometer
mb
20260507152606 53 175 2.6 13.0 0.01 0.04 0.04 95 1005.7
20260507144236 53 186 8.7 19.1 0.00 0.03 0.03 94 1006.2
20260507140040 53 195 7.8 15.6 0.00 0.03 0.03 94 1006.4
20260507132019 53 207 5.2 20.0 0.00 0.03 0.03 94 1006.6
20260507124031 53 207 4.3 16.5 0.00 0.03 0.03 94 1006.9
20260507115713 53 200 7.0 16.5 0.00 0.03 0.03 94 1007.2
20260507111949 53 195 6.1 20.0 0.00 0.03 0.03 93 1007.5
20260507103855 53 167 6.1 17.4 0.00 0.03 0.03 93 1007.7
20260507095627 53 179 4.3 17.4 0.01 0.03 0.03 94 1007.5
20260507090937 53 141 7.8 15.6 0.01 0.03 0.03 93 1007.8
20260507083053 53 180 3.5 16.5 0.01 0.03 0.03 93 1007.5
20260507075541 53 194 7.0 15.6 0.01 0.03 0.03 93 1008.3
20260507071700 53 162 7.0 12.2 0.00 0.02 0.02 93 1008.6
20260507063714 54 205 4.3 10.4 0.00 0.02 0.02 92 1008.4
20260507055832 54 198 3.5 16.5 0.00 0.02 0.02 91 1008.6
20260507051954 55 186 3.5 14.8 0.00 0.02 0.02 89 1008.7
20260507044600 55 199 5.2 13.9 0.00 0.02 0.02 88 1008.5
20260507040522 55 101 4.3 14.8 0.00 0.02 0.02 88 1008.5
20260507033034 55 183 6.1 13.9 0.00 0.02 0.02 88 1008.8
20260507025359 55 200 4.3 13.0 0.00 0.02 0.02 88 1008.9
20260507022003 55 184 4.3 15.6 0.00 0.02 0.02 88 1008.9
20260507015413 55 189 4.3 13.9 0.00 0.02 0.02 87 1009.0
20260507011934 55 196 4.3 20.0 0.00 0.02 0.02 87 1009.0
20260507004909 55 190 10.4 20.9 0.00 0.02 0.02 86 1008.4
20260507001548 56 231 4.3 15.6 0.00 0.02 0.02 86 1008.7
20260506235517 56 189 5.2 14.8 0.00 0.02 0.02 85 1008.8
20260506233633 56 233 6.1 21.7 0.00 0.02 0.02 86 1008.8
20260506231748 56 205 7.0 21.7 0.00 0.02 0.02 85 1008.8
20260506230121 56 221 6.1 19.1 0.00 0.02 0.02 86 1009.1
20260506224016 56 209 3.5 15.6 0.00 0.02 0.02 86 1009.0
20260506222136 56 175 6.1 17.4 0.00 0.02 0.02 85 1009.2
20260506220048 56 200 6.1 18.2 0.00 0.02 0.02 85 1009.3
20260506214250 56 184 6.1 20.0 0.00 0.02 0.02 85 1009.3
20260506212407 57 176 7.8 24.3 0.00 0.02 0.02 84 1009.4
20260506210523 57 180 4.3 15.6 0.00 0.02 0.02 84 1009.4
20260506204547 58 165 8.7 16.5 0.00 0.02 0.02 82 1009.4
20260506202539 57 168 4.3 19.1 0.00 0.02 0.02 84 1009.7
20260506200435 57 215 7.0 15.6 0.00 0.02 0.02 84 1009.9
20260506194556 57 192 5.2 20.9 0.00 0.02 0.02 85 1010.1
20260506192455 56 209 5.2 20.0 0.00 0.02 0.02 85 1010.1
20260506190333 56 167 7.0 15.6 0.00 0.02 0.02 86 1010.3
20260506184453 56 161 5.2 15.6 0.00 0.02 0.02 86 1010.3
20260506182722 56 210 4.3 12.2 0.00 0.02 0.02 85 1010.2
20260506180836 57 203 4.3 9.6 0.00 0.02 0.02 84 1010.2
20260506175111 57 185 4.3 13.0 0.00 0.02 0.02 83 1010.8
20260506173231 58 183 5.2 10.4 0.00 0.02 0.02 82 1011.0
20260506171350 59 151 4.3 14.8 0.00 0.02 0.02 80 1011.1
20260506165140 60 188 6.1 13.0 0.00 0.02 0.02 80 1010.9
20260506163141 59 168 6.1 13.9 0.00 0.02 0.02 80 1010.7
20260506161541 58 158 2.6 9.6 0.00 0.02 0.02 82 1010.7
20260506155642 58 193 5.2 12.2 0.00 0.02 0.02 81 1011.0